Regional Weather Roundup
Issued by NWS Wakefield, VA

Home | Current Version | Previous Version | Text Only | Print | Product List | Glossary Off
Versions: 1 2 3 4 5 6 7 8 9 10 11 12 13 14 15 16 17 18 19 20 21 22 23 24 25 26 27 28 29 30 31 32 33 34 35 36 37 38 39 40 41 42 43 44 45 46 47 48 49 50

000
ASUS41 KAKQ 171810
RWRAKQ

REGIONAL WEATHER ROUNDUP
NATIONAL WEATHER SERVICE WAKEFIELD VA
200 PM EDT WED SEP 17 2014

Note: "fair" indicates few or no clouds below 12,000 feet with no
significant weather and/or obstructions to visibility. * = Denotes
station may not report precipitation (e.g., rain,snow,etc.),
thunder or fog.

VAZ042-051-052>054-056-171900-
NORTHERN VIRGINIA

CITY           SKY/WX    TMP DP  RH WIND       PRES   REMARKS
WASH NATIONAL  PTSUNNY   76  48  37 S5        30.00F
DULLES         PTSUNNY   70  48  45 CALM      30.01F
FORT BELVOIR   MOSUNNY   74  50  43 VRB1      30.00F
QUANTICO       MOSUNNY   73  53  49 S6        30.01F
FREDERICKSBRG* PTSUNNY   75  51  42 E6        29.99F
STAFFORD*      PTSUNNY   74  53  47 CALM      30.04F
WARRENTON      MOSUNNY   74  57  55 E3        30.00F
CULPEPER*      PTSUNNY   73  48  40 W3        30.00F
MANASSAS*      NOT AVBL
LEESBURG*      SUNNY     72  52  49 W5        30.01F
WINCHESTER     PTSUNNY   70  46  43 CALM      30.00F
FRONT ROYAL*   CLOUDY    70  50  49 CALM      30.00F
LURAY*         CLOUDY    72  50  46 SE6       30.00F
$$

VAZ048-049-060>072-079>083-171900-
CENTRAL AND SOUTH CENTRAL VIRGINIA...AND NORTH CENTRAL NORTH CAROLINA

CITY           SKY/WX    TMP DP  RH WIND       PRES   REMARKS
RICHMOND       PTSUNNY   77  53  43 VRB5      29.98F
CHESTERFIELD*  CLOUDY    75  16  10 NE6       30.00F
PETERSBURG*    MOSUNNY   75  54  48 NE7       29.99F
HANOVER        PTSUNNY   76  55  48 VRB6      30.00F
TAPPAHANNOCK*  CLOUDY    73  53  48 NE3       30.00F
CHARLOTTSVILLE MOSUNNY   68  50  52 CALM      30.00F
ORANGE*        MOSUNNY   72  50  46 NE5       30.01F
LOUISA*        MOSUNNY   75  52  43 SE6       29.99F
FARMVILLE*     PTSUNNY   77  52  41 E5        29.98F
CREWE*         CLEAR     77  55  46 E5        29.99F
FORT PICKETT*  CLEAR     76  54  45 E6        29.99F
LUNENBURG*     NOT AVBL
SOUTH HILL*    PTSUNNY   75  61  60 E5        30.03F
LAWRENCEVILLE* CLOUDY    73  62  69 NE3       29.98F
ROANOKE RAPIDS MOCLDY    75  63  64 E6        29.97F
RALEIGH        PTSUNNY   76  61  59 E5        29.95F
$$

VAZ088>098-171900-
SOUTHEAST VIRGINIA

CITY           SKY/WX    TMP DP  RH WIND       PRES   REMARKS
NORFOLK        PTSUNNY   75  59  57 NE10      29.98F
VIRGINIA BEACH PTSUNNY   76  60  57 NE9G18    29.98F
NORFOLK NAVAL  PTSUNNY   75  59  57 E12       30.00F
WEST POINT*    CLOUDY    76  57  50 E6        30.00F
NEWPORT NEWS   MOSUNNY   77  60  55 E10       29.99F
LANGLEY AFB    MOSUNNY   75  60  59 E8        29.98F
FORT EUSTIS    PTSUNNY   76  53  45 VRB7      29.97F
WILLIAMSBURG*  CLOUDY    75  63  64 CALM      29.99F
HR EXEC AP*    CLOUDY    75  61  60 NE8       30.00F
FRANKLIN*      PTSUNNY   75  61  60 E7        29.98F
WAKEFIELD      PTSUNNY   75  58  55 NE6       29.98F
$$

VAZ020-022-025-037-045-171900-
WEST CENTRAL AND SOUTHWEST VIRGINIA

CITY           SKY/WX    TMP DP  RH WIND       PRES   REMARKS
STAUNTON*      NOT AVBL
HOT SPRINGS VA CLOUDY    55  37  49 S6        30.09F
LYNCHBURG      CLOUDY    70  55  59 N7        30.02F
DANVILLE       CLOUDY    73  60  63 E8        29.98F
SOUTH BOSTON*  NOT AVBL
MARTINSVILLE   CLOUDY    74  58  59 E7        30.02F
ROANOKE        PTSUNNY   69  53  56 SE8       30.03F
BLACKSBURG     CLOUDY    66  57  72 E6        30.05F
DUBLIN*        CLOUDY    66  57  73 E3        30.04F
MARION*        MOSUNNY   69  56  64 E10G16    30.04F
HILLSVILLE*    CLOUDY    63  55  77 CALM      30.04F
RICHLANDS*     MOCLDY    72  58  61 N6        30.02F
WISE*          CLOUDY    66  52  59 N3        30.04S
ABINGDON*      PTSUNNY   73  58  57 CALM      29.99F
$$

MDZ021>025-VAZ099-100-171900-
SOUTHERN MARYLAND AND THE DELMARVA PENINSULA

CITY           SKY/WX    TMP DP  RH WIND       PRES   REMARKS
PATUXENT RIVER MOSUNNY   74  49  41 SE8       30.00F
BAY BRIDGE APT   N/A     72  45  37 W3        30.01F
LEONARDTOWN    PTSUNNY   72  46  40 CALM      30.01F
DOVER          MOSUNNY   74  47  39 NE8       29.99F
GEORGETOWN     PTSUNNY   75  44  33 E8        30.01F
EASTON         MOSUNNY   75  48  38 E5        30.04F
CAMBRIDGE      SUNNY     75  45  33 CALM      29.99F
SALISBURY      PTSUNNY   77  47  34 CALM      29.99F
OCEAN CITY     SUNNY     73  49  42 NE10      30.00F
WALLOPS ISLAND MOSUNNY   72  56  57 E13       30.00F
ACCOMACK*      PTSUNNY   72  55  56 E7        29.99F
$$

NCZ012>017-030>032-171900-
EASTERN NORTH CAROLINA

CITY           SKY/WX    TMP DP  RH WIND       PRES   REMARKS
ELIZABETH CITY CLOUDY    73  62  68 NE14      29.97F
AHOSKIE*       PTSUNNY   71  63  76 NE3       29.97F
EDENTON*       NOT AVBL
CURRITUCK*     NOT AVBL
KILL DEVIL HLS CLOUDY    76  60  59 NE7       29.94F
MANTEO         NOT AVBL
CAPE HATTERAS  MOSUNNY   74  68  81 NE14G21   29.92F
TARBORO*       CLOUDY    76  65  70 NE8       29.96F
GOLDSBORO      MOSUNNY   79  71  78 E2        29.91F
WASHINGTON     MOSUNNY   77  65  66 NE12      29.94F
GREENVILLE     PTSUNNY   73  66  78 NE10      29.96F
NEW BERN       CLOUDY    79  66  64 NE8       29.93F
WILMINGTON     MOSUNNY   81  69  67 VRB7      29.89F
$$

VAZ048-171900-
ELSEWHERE

CITY           SKY/WX    TMP DP  RH WIND       PRES   REMARKS
HARRISBURG PA  MOSUNNY   73  44  35 S5        30.00F
BALTIMORE      MOSUNNY   70  49  47 E6        30.00F
ANNAPOLIS      MOSUNNY   71  54  54 SE8       30.01F
ANDREWS AFB    PTSUNNY   70  51  51 E6        30.00F
WILMINGTON DE  PTSUNNY   71  47  42 NE3       30.01F
PHILADELPHIA   MOSUNNY   72  46  39 S5        30.00F
WILDWOOD NJ*   PTSUNNY   72  45  37 N3        30.01F
ATLANTIC CITY  CLOUDY    71  48  43 N9        30.00F
GREENSBORO     PTSUNNY   73  62  68 E6        29.97F
ROCKY MOUNT    PTSUNNY   78  65  63 NE10      29.95F
FAYETTEVILLE   MOSUNNY   77  68  73 VRB5      29.92F
CHARLOTTE      CLOUDY    70  63  78 NE6       29.98F
$$

VAZ100-171900-
MARINE

STATION/POSITION TIME  TEMP    WIND        PRES    WAVE   SWELL
                       AIR SEA DIR/SP/G            HT/PER HT/PER
                 (UTC) (F)     (DEG/KT/KT) (MB)    (FT/S) (FT/S)
44066 TX TWR #4  1800   66 74   20/  8/ 12 1015.7F   4/14   3/14
CAPE MAY NJ      1800   71 76  290/  6/  8 1015.8F
LEWES DE         1800   69 71   10/  5/  8 1016.0F
15NM E FENWICK I 1800   69 73              1015.8F   4/14
OCEAN-CITY-INLET 1800   70 72   70/  9/ 12 1015.6F
WACHAPREAGUE VA  1800   70 74   80/  9/ 12 1015.7F
THOMAS POINT MD  1800   69 74   40/  2/  2 1017.1F
GOOSES REEF MD   1800   70      30/  4/  6 1016.9F
COVE POINT MD    1800   69     350/  6/  9 1016.0F
SOLOMONS ISLAND  1800      76                N/A
BISHOPS HEAD MD  1800   70 72  150/  3/  4 1015.5F
PINEY POINT MD   1800          170/  4/  6   N/A
POTOMAC MD       1800   70      60/  4/  6 1015.7F
CAMBRIDGE MD     1800   72 74  280/  2/  7 1015.6F
LEWISETTA VA     1800   70 73   90/  5/  6 1015.5F
RAPPAHANNOCK LGT 1800          360/  8/  9 1016.1F
STINGRAY PT      1800   71      50/  8/ 10   N/A
YORK RVR RNG VA  1800   72      60/  7/  9 1015.1F
YORKTOWN VA      1800   72 76   80/  8/ 10 1015.2F
JAMESTOWN VA     1800   72     120/  6/  8   N/A
DOMINION TERM VA 1800   75      80/  3/ 10 1015.5F
KIPTOPEKE VA     1800      79   70/  8/ 14   N/A
CHES BAY BRIDGE  1800   71 76   50/ 12/ 14 1015.0F
CAPE HENRY VA    1800   72      50/ 11/ 13 1014.3F
CHESAPEAKE LGHT  1700   71      50/ 14/ 15 1016.3F
WILLOUBY STN VA  1800   72      70/  9/ 11 1014.2F
S CRANEY ISL VA  1800           40/ 11/ 14 1015.0F
CAPE HENRY BUOY  1800      76                N/A     4/14   3/14
1ST LANDING BUOY 1800   72      50/ 12/ 14 1015.2F
CAPE CHARLES BUO 1800      75                N/A     4/13   3/13
OFFSHORE WE BUOY 1800      75                N/A     4/13   3/13
64NM E OF VA BCH 1800   73 77   30/ 12/ 16 1014.2F   5/14   5/14
DUCK PIER NC     1800   73 76   40/ 17/ 19 1013.8F
44100 DUCK FRF   1800      75                N/A     5/15   3/15
44056 DUCK FRF   1800                        N/A     5/14   3/14
OREGON INLET NC  1800   75 76   30/ 13/ 18 1013.8F
HATTERAS NC      1800   74 79   40/ 12/ 16 1013.5F
DIAMOND SHLS NC  1800   78      50/ 12/ 16 1012.6F   5/13   5/13
CAPE LOOKOUT NC  1700   70      40/ 13/ 14 1013.6R
$$



USA.gov is the U.S. government's official web portal to all federal, state and local government web resources and services.